586  
ASUS46 KLOX 220413  
RWRCA  
 
SOUTHERN CALIFORNIA WEATHER ROUNDUP  
NATIONAL WEATHER SERVICE OXNARD CALIFORNIA  
900 PM PDT SAT APR 21 2018  
 
NOTE: "FAIR" INDICATES FEW OR NO CLOUDS BELOW 12,000 FEET WITH NO  
SIGNIFICANT WEATHER AND/OR S TO VISIBILITY
.  
 
- STATIONS PRECEEDED BY AN ASTERISK (*) ARE NOT NWS OR FAA  
STATIONS AND ARE NOT SUBJECT TO NWS AND FAA QUALITY CONTROL.
 
 
CAZ041-042-087-220500-  
LA AND ORANGE COUNTY COASTAL AREAS  
 
 
CITY SKY/WX TMP DP RH WIND PRES REMARKS
 
L.A. DOWNTOWN CLOUDY 63 52 67 CALM 29.95S  
L.A. AIRPORT CLOUDY 61 53 75 SW9 29.97R  
LONG BEACH CLOUDY 65 52 62 NW6 29.97R  
 
CITY SKY/WX TMP DP RH WIND PRES REMARKS
 
AVALON N/A 63 N/A N/A MISG N/A  
FULLERTON CLOUDY 68 50 52 SW6 29.95R  
*GETTY CENTER N/A N/A N/A N/A NW12 N/A  
HAWTHORNE CLOUDY 61 53 75 W7 29.97R  
*LEO CARRILLO N/A 60 54 79 CALM N/A  
*LOS ALAMITOS FAIR 64 49 59 SW8 29.96R  
*REDONDO BEACH N/A 60 52 73 CALM 29.95R  
SANTA ANA CLOUDY 61 55 81 SW13 29.97R  
STA MONICA APT MOCLDY 59 53 80 S6 29.97R  
*UCLA N/A 61 50 67 SE1 29.93S  
 

 
 
CAZ547-548-048-220500-  
LA COUNTY VALLEYS AND INLAND EMPIRE  
 
 
CITY SKY/WX TMP DP RH WIND PRES REMARKS
 
BURBANK MOCLDY 78 36 21 W3 29.97R  
VAN NUYS MOCLDY 75 39 27 CALM 29.97R  
 
CITY SKY/WX TMP DP RH WIND PRES REMARKS
 
CORONA AIRPORT CLOUDY 72 45 37 CALM 29.96S  
*CHATSWORTH N/A 74 44 34 CALM 29.94S  
CHINO CLOUDY 72 44 36 CALM 29.97R  
*CLAREMONT N/A 71 40 32 CALM N/A  
MARCH AFB CLOUDY 72 33 24 N8 29.99S  
ONTARIO CLOUDY 75 39 27 SW6 29.96R  
*PASADENA N/A 72 52 49 CALM N/A  
POMONA CLEAR 68 45 42 W6 29.99S  
RIVERSIDE CLOUDY 74 39 28 CALM 29.97R  
SAN BERNARDINO CLOUDY 77 34 20 E3 29.99R  
*SAN RAFAEL HI N/A 74 32 21 NW8 N/A  
*SAUGUS N/A 73 36 26 N3 N/A  
*WHITEMAN AP NOT AVBL  
*WHITTIER HILL N/A 67 46 46 W2 N/A  
*WOODLAND HILL N/A 75 34 22 S2 N/A  
 

 
 
CAZ054-055-220500-  
LA AND SAN BERNARDINO COUNTY MOUNTAINS  
 
 
CITY SKY/WX TMP DP RH WIND PRES REMARKS
 
*ACTON N/A 65 28 25 CALM N/A  
*BIG BEAR AIRP CLOUDY 48 21 34 CALM 30.23S  
*BIG PINES N/A 50 24 35 CALM N/A  
*CHILAO N/A 58 25 28 NW6 N/A  
SANDBERG CLOUDY 59 35 40 N12G18 30.15R  
*WARM SPRINGS N/A 64 31 29 W14 N/A  
 

 
 
CAZ028-029-059-060-099-220500-  
ANTELOPE VALLEY AND SURROUNDING AREAS  
 
 
CITY SKY/WX TMP DP RH WIND PRES REMARKS
 
LANCASTER MOCLDY 71 28 20 SW9 30.04R  
PALMDALE MOCLDY 73 24 16 SW7 30.04R  
*POPPY PARK N/A 68 32 26 SW10 N/A  
 
CITY SKY/WX TMP DP RH WIND PRES REMARKS
 
29 PALMS MOCLDY 73 8 8 SW3 30.04R  
BARSTOW/DAGGET MOCLDY 76 14 9 S5 29.98R  
BISHOP PTCLDY 69 11 10 S9 30.05R  
CHINA LAKE MOCLDY 73 27 18 SW9 29.99R  
EDWARDS AFB MOCLDY 71 33 25 SW9 30.01R  
MOJAVE CLEAR 70 37 30 NW17 30.03R  
NEEDLES CLOUDY 84 20 9 W7 29.90S  
 

 
 
CAZ039-040-220500-  
VENTURA AND SANTA BARBARA COUNTY COAST  
 
 
CITY SKY/WX TMP DP RH WIND PRES REMARKS
 
CAMARILLO MOCLDY 64 46 52 CALM 29.97R  
NWS OXNARD N/A 60 50 69 CALM 29.95R  
OXNARD AIRPORT MOCLDY 58 53 84 W3 29.97R  
*POINT MUGU MOCLDY 59 50 72 NW5 29.97S  
SBA APT/GOLETA MOCLDY 56 52 86 SE5 29.96S  
*SANTA BARBARA N/A 64 51 62 CALM 30.03S  
*VENTURA N/A 65 50 58 CALM 29.93R  
 

 
 
CAZ044-045-220500-  
VENTURA COUNTY VALLEYS  
 
 
CITY SKY/WX TMP DP RH WIND PRES REMARKS
 
*SIMI VALLEY N/A 66 50 57 NW1 29.93R  
*WESTLAKE VILL N/A 60 45 56 CALM 29.96R  
*OJAI N/A 64 47 54 CALM 29.91R  
*FILLMORE N/A 62 52 70 SW1 30.01R  
 

 
 
CAZ053-220500-  
VENTURA COUNTY MOUNTAINS  
 
 
CITY SKY/WX TMP DP RH WIND PRES REMARKS
 
*LOCKWOOD VLY N/A 54 30 40 MISG N/A  
 

 
 
CAZ034-035-036-220500-  
CENTRAL COAST AND SANTA YNEZ VALLEY  
 
 
CITY SKY/WX TMP DP RH WIND PRES REMARKS
 
SAN LUIS OBISP PTCLDY 57 49 74 CALM 30.02R  
SANTA MARIA PTCLDY N/A N/A N/A CALM 30.03R  
 
CITY SKY/WX TMP DP RH WIND PRES REMARKS
 
*CAL POLY SLO N/A 61 54 77 CALM N/A  
*PISMO BEACH N/A 58 32 37 CALM 30.03R  
*SANTA YNEZ FAIR 61 50 67 SW5 30.02R  
 

 
 
CAZ037-038-051-220500-  
SAN LUIS OBISPO COUNTY INTERIOR AND CUYAMA VALLEY  
 
 
CITY SKY/WX TMP DP RH WIND PRES REMARKS
 
PASO ROBLES PTCLDY 66 51 58 S5 30.02R  
 

 
 
CAZ032-033-061-220500-  
SOUTHERN DESERTS  
 
 
CITY SKY/WX TMP DP RH WIND PRES REMARKS
 
BLYTHE MOCLDY 83 30 14 SW9 29.89R  
IMPERIAL PTCLDY 79 34 19 SE5 29.88R  
PALM SPRINGS MOCLDY 84 32 15 SW6 29.92R  
THERMAL CLOUDY 77 35 21 W5 29.87R  
 

 
 
ELSEWHERE ACROSS THE WESTERN UNITED STATES AND MEXICO  
 
 
CITY SKY/WX TMP DP RH WIND PRES REMARKS
 
DEATH VALLEY, N/A 85 11 6 E3 N/A  
DENVER, CO MOCLDY 34 32 92 S8 30.19R WCI 27  
GRAND CANYON, CLEAR 40 27 59 CALM 30.22R  
HONOLULU, HI PTSUNNY 79 66 65 E15 30.05R  
KAHULUI, MAUI PTCLDY 79 70 73 E9G24 30.02R  
LAKE TAHOE, CA CLEAR 50 42 74 CALM 30.22R  
LAS VEGAS, NV PTCLDY 79 28 15 CALM 29.98R  
MAMMOTH LAKES, FAIR 54 31 42 W6 30.25R  
MEXICO CITY, M LGT RAIN 63 50 63 W12 30.34R  
PHOENIX, AZ MOCLDY 82 30 15 SW6 29.90R  
PORTLAND, OR PTCLDY 53 38 56 N9 30.38R  
RENO, NV PTCLDY 69 40 34 NW7 30.12R  
SALT LAKE CITY CLEAR 60 30 32 SE6 30.14R  
SAN DIEGO, CA MOCLDY 63 55 75 NW6 30.01R  
SAN FRANCISCO, PTCLDY 56 47 71 W15 30.03S  
SAN JOSE, CA PTCLDY 63 49 60 W6 30.04R  
SEATTLE, WA MOCLDY 51 37 58 NE10 30.41R  
TIJUANA, MEX PTCLDY 59 52 77 CALM 30.02R  
 

 
 
STATION/POSITION TIME TEMP WIND PRES VSBY WAVE
 
AIR SEA DIR/SP/G HT/PER  
(UTC) (F) (DEG/KT/KT) (MB) (MI) (FT/S)  
POINT ARGUELLO B NOT AVBL  
WEST SANTA BARBA 0350 53 300/ 17/ 19 1014.9R 8/16  
POINT CONCEPTION NOT AVBL  
EAST SANTA BARBA 0400 56 55 230/ 12/ 14 1015.5  
SANTA MONICA BAY 0400 250/ 4/ 4 1014.5  
 
CLICK HERE TO GO TO PREVIOUS BULLETINS.

The Nexlab CA Page Main Text Page